This demonstration page uses our WeatherBlox Daily Observations layout. Learn more.

Left ArrowRight Arrow

Hourly Observations for April 28, 2016

Temp ( °F °C ) Dew Point ( °F °C ) Humidity (%) Winds ( mph kmh ) Pressure ( in mb ) Visibility ( mi km ) Precip ( " mm )
12:54 am 00:54 Cloudy 50 10 46 7.8 86 86 NNW 14 22 29.65 1004 7 11 0.00 0.00
1:25 am 01:25 Cloudy 50 10 45 7.2 83 83 NW 15 24 29.68 1005 10 16 0.00 0.00
1:54 am 01:54 Cloudy 50 10 45 7.2 83 83 NNW 14 22 29.67 1005 10 16 0.00 0.00
2:54 am 02:54 Cloudy 50 10 45 7.2 83 83 NW 13 20 29.69 1005 10 16 0.00 0.00
3:12 am 03:12 Cloudy 50 10 45 7.2 83 83 NW 9 15 29.71 1006 10 16 0.00 0.00
3:27 am 03:27 Cloudy 50 10 45 7.2 83 83 NW 13 20 29.71 1006 10 16 0.00 0.00
3:54 am 03:54 Cloudy 49 9.4 45 7.2 86 86 NW 15 24 29.72 1007 10 16 0.00 0.00
4:54 am 04:54 Cloudy 49 9.4 43 6.1 80 80 NNW 16 26 29.75 1008 10 16 0.00 0.00
5:54 am 05:54 Cloudy 48 8.9 43 6.1 83 83 NW 16 26 29.79 1009 10 16 0.00 0.00
6:39 am 06:39 Cloudy 48 8.9 42 5.6 80 80 NW 16 26 29.83 1010 10 16 0.00 0.03
6:54 am 06:54 Cloudy 47 8.3 42 5.6 83 83 NNW 16 26 29.83 1010 10 16 0.00 0.03
7:54 am 07:54 Cloudy 47 8.3 41 5 80 80 NW 12 19 29.87 1011 10 16 0.00 0.00
8:28 am 08:28 Cloudy 48 9 41 5 76 76 NNW 13 20 29.88 1012 10 16 0.00 0.00
8:37 am 08:37 Cloudy 48 8.9 41 5 77 77 NNW 12 19 29.91 1013 10 16 0.00 0.00
8:54 am 08:54 Cloudy 49 9.4 41 5 74 74 NNW 15 24 29.88 1012 10 16 0.00 0.00
9:17 am 09:17 Mostly Cloudy 49 9.4 40 4.4 71 71 NNW 16 26 29.88 1012 10 16 0.00 0.00
9:54 am 09:54 Cloudy 50 10 40 4.4 68 68 NNW 20 31 29.91 1013 10 16 0.00 0.00
10:54 am 10:54 Cloudy 51 10.6 41 5 69 69 NW 13 20 29.94 1014 10 16 0.00 0.00
11:54 am 11:54 Cloudy 51 10.6 41 5 69 69 NNW 14 22 29.96 1015 10 16 0.00 0.00
12:54 pm 12:54 Cloudy 52 11.1 40 4.4 64 64 NNW 14 22 29.98 1015 10 16 0.00 0.00
1:54 pm 13:54 Cloudy 52 11.1 41 5 66 66 N 10 17 29.99 1016 10 16 0.00 0.00
2:54 pm 14:54 Cloudy 52 11.1 41 5 66 66 NNW 10 17 30.00 1016 10 16 0.00 0.00
3:54 pm 15:54 Cloudy 52 11.1 41 5 66 66 NNW 8 13 30.02 1017 10 16 0.00 0.00
4:54 pm 16:54 Cloudy 52 11.1 40 4.4 64 64 NNW 9 15 30.03 1017 10 16 0.00 0.00
5:31 pm 17:31 Cloudy 52 11.1 41 5 66 66 NNW 13 20 30.03 1017 10 16 0.00 0.00
5:54 pm 17:54 Cloudy 52 11.1 41 5 66 66 NNW 10 17 30.04 1017 10 16 0.00 0.00
6:09 pm 18:09 Cloudy 52 11.1 41 5 66 66 N 14 22 30.03 1017 10 16 0.00 0.00
6:20 pm 18:20 Cloudy 52 11 41 5 67 67 N 13 20 30.00 1016 10 16 0.00 0.00
6:54 pm 18:54 Cloudy 51 10.6 41 5 69 69 N 14 22 30.03 1017 10 16 0.00 0.00
7:49 pm 19:49 Cloudy 50 10 41 5 71 71 N 12 19 30.06 1018 10 16 0.00 0.00
7:54 pm 19:54 Cloudy 50 10 40 4.4 68 68 N 9 15 30.05 1018 10 16 0.00 0.00
8:54 pm 20:54 Cloudy 49 9.4 41 5 74 74 NNE 9 15 30.08 1019 10 16 0.00 0.00
9:54 pm 21:54 Cloudy 48 8.9 41 5 77 77 NNE 6 9 30.11 1020 10 16 0.00 0.00
10:54 pm 22:54 Cloudy 48 8.9 41 5 77 77 NNE 6 9 30.14 1021 10 16 0.00 0.00
11:54 pm 23:54 Cloudy 48 8.9 40 4.4 74 74 N 13 20 30.14 1021 10 16 0.00 0.00

Powered by AerisWeather